OV1-5 DEB, 5361

Orbit data source: Space-Track

OV1-5 DEB, 5361 is space debris in LEO originally from a launch on Wed, 30 Mar 1966 UTC launched from the Air Force Western Test Range (AFWTR). Debris objects in space refer to the collection of defunct objects orbiting the Earth. Examples of debris include non-operational satellites, rocket bodies, and fragments generated from explosions, collisions, or faulty payload assembly.

Loading next visibility...
OV1-5 DEB details
Identifier
5361, 1966-025F
Orbit
LEO
Last TLE update18 hours ago
Origin
Flag of USAFSC (US)
ManufacturerUnknown
MissionSpacecraft
Bus & MotorUnknown
MassUnknown
Launch date (UTC)
1966-03-30 (59 years ago)
Launch vehicleUnknown
Launch site
Air Force Western Test Range (AFWTR)
Object type
Payload
Rocket body
Debris
Shape & HBRUnknown
Radar Cross SectionSmall (<0.1 m²)

Expand to show TLE details & history

TLE from 18 hours ago
0 OV1-5 DEB
1 05361U 66025F   24355.73198904  .00014392  00000-0  40674-2 0  9996
2 05361 144.6136 168.5661 0024241 201.9475 158.0180 14.43464475289886
Epoch: 2024-12-20T17:34Z
Definitive object data (Epoch: 2024-12-20T17:34:03.853Z)
Latitude-0.00001°
Longitude175.25677°
Altitude762.078 km
Speed7.467 km/s
True Right ascension11h 14m 15s
True Declination0° 00' 00"
Sunlit
Object was in daylight at TLE epoch
Visualization TLE readout
Latitude-22.49631°
Longitude-145.13989°
Altitude757.666 km
Speed7.473 km/s
Apparent Right ascension17h 03m 13s
Apparent Declination-53° 56' 50"
Sunlit
Object is in daylight
Visualization observer readout
Local Sidereal Time10:40:00
Azimuth134.822° SE
Elevation-34.363°
Doppler factor1
Orbital elements
Apogee altitude767.432 km
Perigee altitude732.872 km
Semi-major axis7,128.289 km
Eccentricity0.0024241
Inclination144.6136°
RAAN168.5661°
Arg. of periapsis201.9475°
True anomaly158.12169°
Mean anomaly158.018°
Eccentric anomaly158.06987°
Mean motion3.60633 °/min
BSTAR0.0040674
Orbital period99.82 mins
Loading maneuver chart data...
Loading historical data...
Loading historical data...
Loading historical data...
Loading historical data...
Loading historical data...
Loading historical data...
Loading historical data...

OV1-5 DEB Visibility forecast

Observer location: undefined°, undefined

Span
Click to sort rows by Start time (UTC) header in descending order
Start Az.
Max El. time (UTC)
Max El. Az.
Max El.
End time (UTC)
End Az.
5 mins2024-12-22 03:19:19.991Z121.629° SE2024-12-22 03:21:19.991Z150.346° SSE17.014°2024-12-22 03:24:19.991Z192.633° SSW
7 mins2024-12-22 04:53:19.991Z106.216° ESE2024-12-22 04:56:19.991Z163.068° S31.609°2024-12-22 05:00:19.991Z231.101° WSW
7 mins2024-12-22 06:28:19.991Z111.015° ESE2024-12-22 06:31:19.991Z190.639° SSW38.201°2024-12-22 06:35:19.991Z253.768° W
7 mins2024-12-22 08:02:19.991Z125.516° SE2024-12-22 08:05:19.991Z178.003° S34.241°2024-12-22 08:09:19.991Z258.321° W
5 mins2024-12-22 09:38:19.991Z167.375° S2024-12-22 09:40:19.991Z200.309° SSW21.508°2024-12-22 09:43:19.991Z246.854° WSW
|